Windsor, CA

3:09 AM PDT on September 25, 2016 (GMT -0700)
Sonoma County

Weather History for KSTS - February, 2012

Change the Weather History Date:

Saturday, February 11, 2012

  Actual Average Record
Temperature  
Mean Temperature 52 °F 49 °F  
Max Temperature 63 °F 60 °F 72 °F (2008)
Min Temperature 40 °F 39 °F 28 °F (1999)
Degree Days  
Heating Degree Days 13    
Month to date heating degree days 146  
Since 1 July heating degree days 1826  
Cooling Degree Days 0    
Month to date cooling degree days 0  
Year to date cooling degree days 0  
Growing Degree Days 1 (Base 50)    
Moisture  
Dew Point 46 °F    
Average Humidity 80    
Maximum Humidity 100    
Minimum Humidity 60    
Precipitation  
Precipitation 0.01 in 0.22 in 1.20 in (2000)
Month to date precipitation 0.87 2.30  
Year to date precipitation 7.84 9.35  
Since 1 July precipitation 12.30  
Sea Level Pressure  
Sea Level Pressure 30.03 in    
Wind  
Wind Speed 2 mph (SW)    
Max Wind Speed 13 mph    
Max Gust Speed 15 mph    
Visibility 6 miles    
Events Fog    
T = Trace of Precipitation, MM = Missing Value Source: NWS Daily Summary

Daily Weather History Graph

Daily Weather History Graph

Search for Another Location

Airport or City:

Trip Planner

Search our weather history database for the weather conditions in past years. The results will help you decide how hot, cold, wet, or windy it might be!

Date:

Astronomy

Feb. 11, 2012 Rise Set
Actual Time 7:07 AM PST 5:44 PM PST
Civil Twilight 6:39 AM PST 6:11 PM PST
Nautical Twilight 6:08 AM PST 6:43 PM PST
Astronomical Twilight 5:37 AM PST 7:13 PM PST
Moon 10:34 PM PST (2/11) 8:56 AM PST (2/11)
Length of Visible Light 11h 32m
Length of Day
10h 37m
Waning Gibbous, 81% of the Moon is Illuminated
Feb 11
Waning Gibbous
Feb 14
Last Quarter
Feb 21
New
Feb 29
First Quarter
Mar 8
Full

Hourly Weather History & Observations

Time (PST) Temp. Windchill Dew Point Humidity Pressure Visibility Wind Dir Wind Speed Gust Speed Precip Events Conditions
12:00 AM 48.2 °F - 48.2 °F 100% 30.07 in 1.8 mi Calm Calm - N/A   Scattered Clouds
12:16 AM 50.0 °F - 48.2 °F 94% 30.06 in 3.0 mi Calm Calm - N/A   Mostly Cloudy
12:33 AM 50.0 °F - 48.2 °F 94% 30.06 in 2.5 mi Calm Calm - N/A   Overcast
12:42 AM 50.0 °F - 48.2 °F 94% 30.06 in 10.0 mi SSW 3.5 mph - N/A   Mostly Cloudy
12:53 AM 48.9 °F - 48.0 °F 97% 30.04 in 10.0 mi South 3.5 mph - N/A   Overcast
1:53 AM 50.0 °F - 48.0 °F 93% 30.04 in 10.0 mi Calm Calm - N/A   Overcast
2:10 AM 50.0 °F - 48.2 °F 94% 30.05 in 9.0 mi Calm Calm - N/A   Overcast
2:53 AM 50.0 °F - 48.0 °F 93% 30.03 in 8.0 mi Calm Calm - N/A   Overcast
3:53 AM 50.0 °F - 48.0 °F 93% 30.02 in 10.0 mi South 3.5 mph - N/A   Overcast
4:19 AM 48.2 °F - 48.2 °F 100% 30.03 in 3.0 mi Calm Calm - N/A   Overcast
4:26 AM 48.2 °F - 46.4 °F 93% 30.03 in 2.0 mi Calm Calm - N/A   Mostly Cloudy
4:36 AM 48.2 °F - 46.4 °F 93% 30.03 in 1.2 mi Calm Calm - N/A   Mostly Cloudy
4:46 AM 48.2 °F - 46.4 °F 93% 30.04 in 0.5 mi Calm Calm - N/A Fog Fog
4:53 AM 48.0 °F - 46.9 °F 96% 30.02 in 1.0 mi Calm Calm - N/A   Mostly Cloudy
4:59 AM 48.2 °F - 46.4 °F 93% 30.04 in 4.0 mi Calm Calm - N/A   Mostly Cloudy
5:08 AM 48.2 °F - 46.4 °F 93% 30.04 in 2.5 mi Calm Calm - 0.01 in   Overcast
5:21 AM 46.4 °F - 46.4 °F 100% 30.04 in 3.0 mi Calm Calm - 0.01 in   Overcast
5:23 AM 46.4 °F - 46.4 °F 100% 30.04 in 1.8 mi Calm Calm - 0.01 in   Overcast
5:53 AM 46.9 °F - 46.0 °F 97% 30.02 in 0.5 mi WNW 3.5 mph - 0.01 in Fog Fog
6:01 AM 48.2 °F - 46.4 °F 93% 30.04 in 0.2 mi Calm Calm - N/A Fog Fog
6:53 AM 48.0 °F - 46.9 °F 96% 30.02 in 0.2 mi Calm Calm - N/A Fog Fog
7:53 AM 48.0 °F - 46.9 °F 96% 30.04 in 0.2 mi Calm Calm - N/A Fog Fog
8:37 AM 48.2 °F - 48.2 °F 100% 30.07 in 0.5 mi SSE 4.6 mph - N/A Fog Fog
8:53 AM 48.9 °F - 48.9 °F 100% 30.05 in 0.8 mi Calm Calm - N/A   Overcast
9:53 AM 50.0 °F - 48.0 °F 93% 30.06 in 3.0 mi Calm Calm - N/A   Mostly Cloudy
10:32 AM 53.6 °F - 48.2 °F 82% 30.07 in 10.0 mi Calm Calm - N/A   Mostly Cloudy
10:53 AM 54.0 °F - 48.0 °F 80% 30.05 in 10.0 mi Calm Calm - N/A   Mostly Cloudy
11:53 AM 57.0 °F - 48.0 °F 72% 30.04 in 10.0 mi Calm Calm - N/A   Mostly Cloudy
12:53 PM 61.0 °F - 48.0 °F 62% 30.01 in 10.0 mi Variable 3.5 mph - N/A   Mostly Cloudy
1:53 PM 61.0 °F - 48.9 °F 64% 29.99 in 10.0 mi SW 3.5 mph - N/A   Mostly Cloudy
2:53 PM 63.0 °F - 48.0 °F 58% 29.96 in 10.0 mi Variable 3.5 mph - N/A   Scattered Clouds
3:53 PM 62.1 °F - 48.0 °F 60% 29.96 in 10.0 mi South 5.8 mph - N/A   Scattered Clouds
4:53 PM 59.0 °F - 48.9 °F 69% 29.97 in 10.0 mi South 8.1 mph - N/A   Scattered Clouds
5:53 PM 55.0 °F - 46.9 °F 74% 29.99 in 10.0 mi SSE 3.5 mph - N/A   Clear
6:53 PM 51.1 °F - 46.0 °F 83% 30.00 in 10.0 mi SE 5.8 mph - N/A   Clear
7:53 PM 48.0 °F - 45.0 °F 89% 30.01 in 10.0 mi SE 4.6 mph - N/A   Clear
8:53 PM 46.0 °F - 43.0 °F 89% 30.02 in 10.0 mi Calm Calm - N/A   Clear
9:53 PM 46.0 °F - 44.1 °F 93% 30.04 in 10.0 mi Calm Calm - N/A   Clear
10:17 PM 44.6 °F - 42.8 °F 93% 30.05 in 1.8 mi Calm Calm - N/A   Clear
10:25 PM 44.6 °F - 44.6 °F 100% 30.05 in 3.0 mi Calm Calm - N/A   Clear
10:53 PM 45.0 °F - 43.0 °F 93% 30.03 in 10.0 mi Calm Calm - N/A   Clear
11:11 PM 41.0 °F 39.0 °F 39.2 °F 93% 30.04 in 1.5 mi WNW 3.5 mph - N/A   Partly Cloudy
11:15 PM 41.0 °F 39.0 °F 39.2 °F 93% 30.04 in 0.8 mi West 3.5 mph - N/A   Mist
11:27 PM 39.2 °F 35.9 °F 39.2 °F 100% 30.04 in 0.8 mi West 4.6 mph - N/A   Mist
11:41 PM 41.0 °F 38.0 °F 39.2 °F 93% 30.04 in 0.2 mi West 4.6 mph - N/A Fog Fog
11:53 PM 41.0 °F - 41.0 °F 100% 30.02 in 0.2 mi Calm Calm - N/A Fog Fog